Change the Weather History Date:

Friday, September 5, 2014

  Actual Average Record
Temperature  
Mean Temperature 82 °F -  
Max Temperature 93 °F 85 °F 105 °F (1925)
Min Temperature 71 °F 63 °F 47 °F (1924)
Cooling Degree Days 17    
Growing Degree Days 32 (Base 50)    
Moisture  
Dew Point 71 °F    
Average Humidity 70    
Maximum Humidity 91    
Minimum Humidity 45    
Precipitation  
Precipitation 0.00 in - - ()
Sea Level Pressure  
Sea Level Pressure 30.03 in    
Wind  
Wind Speed 3 mph (South)    
Max Wind Speed 9 mph    
Max Gust Speed -    
Visibility 9 miles    
Events Thunderstorm    
Averages and records for this station are not official NWS values.
T = Trace of Precipitation, MM = Missing Value Source: NWS Daily Summary

Daily Weather History Graph

Daily Weather History Graph

Search for Another Location

Airport or City:

Trip Planner

Search our weather history database for the weather conditions in past years. The results will help you decide how hot, cold, wet, or windy it might be!

Date:

Astronomy

Sep. 05, 2014 Rise Set
Actual Time 6:35 AM CDT 7:23 PM CDT
Civil Twilight 6:09 AM CDT 7:49 PM CDT
Nautical Twilight 5:38 AM CDT 8:20 PM CDT
Astronomical Twilight 5:06 AM CDT 8:52 PM CDT
Moon 4:49 PM CDT (9/5) 2:34 AM CDT (9/5)
Length of Visible Light 13h 40m
Length of Day
12h 48m
Waxing Gibbous, 84% of the Moon is Illuminated
Sep 5
Waxing Gibbous
Sep 8
Full
Sep 15
Last Quarter
Sep 24
New
Oct 1
First Quarter

Hourly Weather History & Observations

Time (CDT) Temp. Heat Index Dew Point Humidity Pressure Visibility Wind Dir Wind Speed Gust Speed Precip Events Conditions
12:53 AM 75.9 °F - 71.1 °F 85% 30.03 in 8.0 mi Calm Calm - N/A   Clear
1:53 AM 75.0 °F - 71.1 °F 87% 30.02 in 7.0 mi SE 4.6 mph - N/A   Clear
2:53 AM 73.0 °F - 69.1 °F 87% 30.03 in 6.0 mi Calm Calm - N/A   Clear
3:53 AM 73.0 °F - 70.0 °F 90% 30.03 in 6.0 mi SE 3.5 mph - N/A   Clear
4:53 AM 72.0 °F - 69.1 °F 91% 30.04 in 6.0 mi Calm Calm - N/A   Clear
5:53 AM 71.1 °F - 68.0 °F 90% 30.04 in 7.0 mi Calm Calm - N/A   Clear
6:53 AM 71.1 °F - 68.0 °F 90% 30.06 in 5.0 mi Calm Calm - N/A   Clear
7:53 AM 77.0 °F - 71.1 °F 82% 30.08 in 8.0 mi Calm Calm - N/A   Clear
8:53 AM 81.0 °F 85.2 °F 72.0 °F 74% 30.09 in 10.0 mi SW 6.9 mph - N/A   Clear
9:53 AM 84.0 °F 90.2 °F 73.0 °F 69% 30.08 in 10.0 mi SSW 5.8 mph - N/A   Clear
10:53 AM 87.1 °F 94.5 °F 73.0 °F 63% 30.09 in 10.0 mi South 4.6 mph - N/A   Clear
11:53 AM 89.1 °F 96.0 °F 72.0 °F 57% 30.07 in 10.0 mi South 6.9 mph - N/A   Clear
12:53 PM 91.9 °F 96.9 °F 69.1 °F 47% 30.05 in 10.0 mi South 5.8 mph - N/A   Clear
1:23 PM 91.9 °F 96.9 °F 69.1 °F 47% 30.06 in 10.0 mi South 8.1 mph - N/A Thunderstorm Clear
1:53 PM 93.0 °F 99.0 °F 70.0 °F 47% 30.04 in 10.0 mi SSE 9.2 mph - N/A   Clear
2:53 PM 93.0 °F 97.9 °F 69.1 °F 45% 30.00 in 10.0 mi South 5.8 mph - N/A   Clear
3:53 PM 93.0 °F 99.0 °F 70.0 °F 47% 29.98 in 10.0 mi Variable 4.6 mph - N/A   Clear
5:53 PM 91.9 °F 96.9 °F 69.1 °F 47% 29.96 in 10.0 mi South 5.8 mph - N/A   Clear
6:53 PM 88.0 °F 94.7 °F 72.0 °F 59% 29.97 in 10.0 mi Calm Calm - N/A   Clear
7:53 PM 82.9 °F 88.0 °F 72.0 °F 69% 29.99 in 10.0 mi SSW 4.6 mph - N/A   Clear
8:53 PM 81.0 °F 85.2 °F 72.0 °F 74% 30.00 in 10.0 mi SSW 5.8 mph - N/A   Clear
9:53 PM 79.0 °F - 72.0 °F 79% 30.01 in 10.0 mi SW 3.5 mph - N/A   Clear
10:53 PM 77.0 °F - 71.1 °F 82% 30.01 in 10.0 mi SSE 3.5 mph - N/A   Clear
11:53 PM 78.1 °F - 71.1 °F 79% 30.00 in 10.0 mi West 4.6 mph - N/A   Clear